Miscellaneous Local Product
Issued by NWS Hastings, NE

Home | Current Version | Previous Version | Text Only | Print | Product List | Glossary Off
Versions: 1 2 3 4 5 6 7 8 9 10 11 12 13 14 15 16 17 18 19 20 21 22 23 24 25 26 27 28 29 30 31 32 33 34 35 36 37 38 39 40 41 42 43 44 45 46 47 48 49 50

000
AXUS43 KGID 201502
MISGRI

GID CWA HOURLY WEATHER ROUNDUP
NATIONAL WEATHER SERVICE HASTINGS NE
900 AM CST SAT DEC 20 2014

NOTE: "FAIR" INDICATES FEW OR NO CLOUDS BELOW 12,000 FEET WITH NO
SIGNIFICANT WEATHER AND/OR OBSTRUCTIONS TO VISIBILITY.

...SOUTH CENTRAL NEBRASKA...

CITY           SKY/WX    TMP DP  RH WIND       PRES   REMARKS
GRAND ISLAND   FOG       28  28 100 S5        30.08R VSB<1/4 WCI  23
HASTINGS       HAZE      27  22  81 CALM      30.06R VSB<1/4
KEARNEY        PTCLDY    19  18  93 SE3       30.04F
ORD            NOT AVBL
YORK           FOG       32  32 100 CALM      30.07S VSB 1/4
AURORA         FOG       29  29 100 CALM      30.07R VSB<1/4
LEXINGTON      CLEAR     21  19  93 W6        30.03R FOG     WCI  13
HOLDREGE       CLEAR     21  19  91 CALM      30.03F
HEBRON         FOG       28  26  96 CALM      30.09S VSB 1/4

...NEBRASKA PANHANDLE...

CITY           SKY/WX    TMP DP  RH WIND       PRES   REMARKS
CHADRON        CLOUDY    27  21  78 SW9       29.94F WCI  18
ALLIANCE       MOCLDY    13   9  84 W6        29.95S WCI   4
SCOTTSBLUFF    MOCLDY    19  14  81 CALM      29.98R
SIDNEY         CLOUDY    26  19  74 W8        29.99S WCI  18

...WESTERN AND NORTH CENTRAL NEBRASKA...

CITY           SKY/WX    TMP DP  RH WIND       PRES   REMARKS
VALENTINE      PTCLDY    14  12  92 CALM      29.95F
AINSWORTH      PTCLDY    23  17  78 SW5       29.96S WCI  17
ONEILL         PTCLDY   N/A N/A N/A CALM      30.02S
BROKEN BOW     CLEAR     21  17  84 CALM      30.00S
IMPERIAL       CLEAR     20  15  81 CALM      30.01S
NORTH PLATTE   PTCLDY    19  16  88 CALM      30.01S FOG
MCCOOK         CLEAR     23  20  88 CALM      30.04S

...EASTERN NEBRASKA...

CITY           SKY/WX    TMP DP  RH WIND       PRES   REMARKS
NORFOLK        CLOUDY    32  30  92 S8        30.07R FOG     WCI  25
SO SIOUX CITY  CLOUDY    32  30  92 S6        30.11S FOG     WCI  26
TEKAMAH        FOG       32  31  96 SE8       30.11F VSB 3/4 WCI  25
COLUMBUS       CLOUDY    32  27  80 S5        30.10R WCI  27
ALBION         FOG       30  28  93 S6        30.06R VSB 1/4 WCI  24
OMAHA EPPLEY   DRZL/FOG  33  32  96 S9        30.13S VSB 1   WCI  25
OFFUTT AFB     CLOUDY    32  31  96 SE6       30.12S FOG     WCI  27
MILLARD        CLOUDY    32  32  97 SE5       30.12S FOG     WCI  28
LINCOLN        CLOUDY    32  31  96 SW3       30.11S FOG
NEBRASKA CITY  CLOUDY    32  32 100 SW5       30.11S FOG     WCI  28
BEATRICE       FOG       32  32 100 SW6       30.10R VSB 1/2 WCI  26
FALLS CITY     CLOUDY    33  30  88 S6        30.13S WCI  28

...NORTHERN KANSAS...

CITY           SKY/WX    TMP DP  RH WIND       PRES   REMARKS
GOODLAND       CLEAR     33  26  75 W7        30.02F WCI  27
HILL CITY      CLEAR     29  25  85 W5        30.07S WCI  24
NORTON         SUNNY     27  25  93 S5        30.04R WCI  21
PHILLIPSBURG   CLEAR     28  28 100 CALM      30.07S
SMITH CENTER   CLEAR     23  21  93 CALM      30.08S FOG
BELOIT         SUNNY     28  28 100 CALM      30.09S
HAYS           SUNNY     28  19  69 W5        30.08F WCI  23
RUSSELL        SUNNY     30  29  96 SW8       30.07F FOG     WCI  22
CONCORDIA      SUNNY     30  29  96 SW5       30.09R FOG     WCI  25
SALINA         FOG       32  31  96 S6        30.13S VSB 1/4 WCI  26
TOPEKA         SUNNY     36  31  82 S9        30.16S WCI  29



USA.gov is the U.S. government's official web portal to all federal, state and local government web resources and services.